Location: Ravensburg
(47.7866°N, 9.6124°E)
Time: 08:19:40
(UTC+02:00)

YUBILEINY - Pass Details

Date: 16 March 2026
Orbit: 1477 x 1509 km, 82.5° (Epoch: 17 April)

Event Time Altitude Azimuth Distance (km) Brightness Sun altitude
Rises 05:02:16 0° 345° (NNW) 4,621 ? -15.9°
Reaches altitude 10° 05:05:30 10° 336° (NNW) 3,634 ? -15.4°
Maximum altitude 05:12:50 32° 278° (W) 2,325 ? -14.2°
Drops below altitude 10° 05:20:09 10° 220° (SW) 3,608 ? -13.0°
Sets 05:23:23 0° 211° (SSW) 4,584 ? -12.5°
